Location: Kailua
(21.4020°N, 157.7390°W)
Time: 00:02:05
(UTC-10:00)

Daily predictions for brighter satellites

Satellite Brightness Start Highest point End
(mag) Time Altitude Azimuth Time Altitude Azimuth Time Altitude Azimuth
ATLAS 5 CENTAUR R/B 3.7 03:38:33 38° ENE 03:38:35 38° ENE 03:44:37 10° SE
NOSS 3-2 (A) 4.1 03:51:28 64° NNE 03:52:37 73° ENE 04:00:49 10° SSE
CZ-3A R/B 3.4 03:56:46 64° WSW 03:58:42 81° SSE 04:03:39 10° E
USA 215 4.3 03:56:53 10° ESE 04:02:55 41° NE 04:07:23 18° NNW
SL-16 R/B 3.8 04:02:50 10° N 04:07:50 32° ENE 04:12:48 10° SE
ADEOS Rocket 3.2 04:06:28 10° NNE 04:13:03 69° ESE 04:15:13 41° S
Cosmos 1000 Rocket 4.3 04:22:56 77° SW 04:23:18 80° W 04:29:38 10° N
Cosmos 2058 Rocket 3.8 04:20:36 10° N 04:24:51 51° E 04:29:07 10° SSE
GPS 2-14 Rocket1 3.9 04:29:57 40° ESE 04:29:57 40° ESE 04:32:56 10° E
NOSS 3-2 (C) 3.9 04:27:12 22° NNW 04:32:43 75° WSW 04:40:54 10° SSE
Okean-O 2.9 04:32:03 10° NNE 04:36:26 66° ESE 04:38:11 35° S
Cosmos 1626 Rocket 3.7 04:37:47 45° SSE 04:39:03 72° E 04:43:24 10° N
Cosmos 2016 Rocket 4.5 04:32:59 10° N 04:39:09 60° E 04:45:15 10° SSE
Meteor 2-15 4.2 04:37:33 16° SSW 04:42:27 74° W 04:48:29 10° N
Cosmos 292 Rocket 3.6 04:41:18 52° NNW 04:42:28 81° WSW 04:47:17 10° S
GPS 2-15 Rocket1 3.1 04:42:47 66° S 04:42:47 66° S 04:47:27 10° ESE
Cosmos 2173 Rocket 3.8 04:37:59 10° N 04:44:06 84° W 04:50:19 10° S
Cosmos 2123 Rocket 3.9 04:41:31 10° S 04:47:41 85° E 04:53:51 10° N
Cosmos 2263 Rocket 3.8 04:43:24 10° SSE 04:48:22 34° ESE 04:53:19 10° NE
Cosmos 1459 Rocket 3.9 04:42:14 10° N 04:48:33 74° W 04:54:45 10° S
Cosmos 1515 3.6 04:48:49 79° SSE 04:49:01 85° E 04:52:50 10° N
BREEZE-M DEB (TANK) 3.5 04:48:17 26° SSE 04:49:20 35° ESE 04:54:41 10° NE
Cosmos 1340 3.6 04:53:57 10° S 04:57:36 49° E 05:01:16 10° NNE
Meteor 1-31 Rocket 3.2 04:55:27 10° NNE 04:59:21 64° ESE 05:03:14 10° S
MOS 1 Rocket 3.6 04:55:22 10° NNE 05:00:27 78° ESE 05:05:47 10° S
ADEOS II 2.1 04:57:21 10° N 05:02:29 56° WNW 05:07:36 10° SSW
Meteor 2-15 Rocket 4.4 04:57:25 10° SSW 05:03:20 56° W 05:09:16 10° N
Cosmos 1602 Rocket 3.6 05:01:52 32° SW 05:03:38 51° W 05:07:56 10° N
Palapa 6 Rocket 4.2 05:05:26 29° SW 05:06:31 32° SSW 05:10:33 10° SE
Aureole 2 Rocket 1.8 05:08:55 70° W 05:09:02 71° WSW 05:11:52 10° S
COBE Rocket 3.6 05:07:55 10° N 05:12:35 76° W 05:17:11 10° SSW
Meteor PRIRODA 4.2 05:13:54 10° N 05:17:17 35° WNW 05:18:03 31° WSW
OTV 4 0.1 05:17:34 56° WSW 05:17:50 61° SW 05:20:32 10° SE
CZ-4B R/B 3.5 05:15:08 10° N 05:18:51 67° WNW 05:22:28 10° SSW
Thor Agena Rocket 3.7 05:16:26 10° S 05:21:33 52° WSW 05:26:42 10° NNW
ATLAS 5 CENTAUR R/B 3.4 05:20:18 20° WNW 05:23:09 27° WSW 05:28:33 10° SSW
Centaur D-1A AC-35 2.5 05:21:16 22° WNW 05:23:27 48° N 05:27:02 10° ENE
Cosmos 2228 3.5 05:19:47 10° NNW 05:23:45 35° W 05:27:41 10° SSW
Hubble Space Telescope 2.5 05:27:33 16° SW 05:28:49 19° SSW 05:31:45 10° SSE
Ariane Rocket 3.5 05:24:01 10° NNE 05:29:04 64° ESE 05:34:06 10° S
GPS 2-17 Rocket1 3.0 05:26:33 21° WSW 05:29:21 66° S 05:33:39 10° E
Delta 142 3.9 05:28:12 16° WNW 05:31:57 60° NNE 05:36:02 10° E
GOES 2 Rocket 4.4 05:27:20 15° WNW 05:32:18 64° NNE 05:40:06 10° E
Cosmos 372 Rocket 3.9 05:32:09 10° SSW 05:37:13 73° WNW 05:42:18 10° N
Cosmos 1812 Rocket 3.5 05:35:18 10° NNW 05:39:43 67° W 05:44:09 10° S
Cosmos 2233 Rocket 4.1 05:39:16 10° N 05:45:31 88° E 05:51:41 10° S
USA 215 3.8 05:39:50 10° S 05:45:46 37° SW 05:51:41 10° WNW
Fermi 3.8 05:42:24 12° WNW 05:46:05 72° NNE 05:50:08 10° E
GPS 2-18 Rocket1 3.2 05:45:45 12° W 05:49:23 73° S 05:53:20 10° ESE
Cosmos 1125 Rocket 4.3 05:45:50 10° SW 05:50:17 29° WNW 05:54:45 10° NNW
SL-16 R/B 3.3 05:47:26 10° NW 05:51:37 21° WSW 05:55:47 10° SSW
USA 129 2.6 05:54:24 10° SSW 05:56:07 24° W 05:57:45 10° NW
